千帆星座-211(QIANFAN-211)

导读

QIANFAN-211(NORAD编号69810)是中国千帆低轨卫星互联网星座的成员卫星,由上海垣信卫星科技有限公司主导运营,中国科学院微小卫星创新研究院承研。该卫星为极轨卫星,具备低延迟、高带宽通信能力,下行速率最高可达150Mbps,可支撑远洋航运通信、应急响应、自然资源监测等多场景服务。目前卫星在轨运行稳定,是千帆星座截至2026年7月已部署的89颗卫星之一,将为缩小全球数字鸿沟、提供广域网络覆盖提供支撑,助力我国商业航天通导遥一体化服务能力落地。

Basic Information
目录编号:
69810
目录名称:
QIANFAN-211
国际标识:
2026-153L
轨道中心:
EARTH
卫星名称:
千帆星座-211
卫星全名:
千帆星座-211(QIANFAN-211)
卫星状态:
在轨 (已飞行63 天)
发射日期:
2026-07-04 UTC
国别 :
中国 (CN)
星等 :
--
Orbit Information
数据来源 国际轨道数据 AOE轨道数据
星历时间 2026-09-05T04:53:39+0800
10小时前
查看轨道信息
2026-08-30T03:00:00+0800
6天前
查看轨道信息
半长轴 7222.039km 7222.048km
偏心率 0.0008639 0.0009187
轨道倾角 88.998° 88.998°
近地点辐角 34.902° 52.622°
升交点赤经 353.184° 353.867°
平近点角 325.273° 331.323°
近地点 837.662km 837.276km
远地点 850.142km 850.546km
周期 101.800分钟 101.801分钟
每日圈数 14.145328 14.145303
Detailed Information
卫星平台:
211
覆盖范围:
全球
运营商:
上海垣信卫星科技有限公司
运营商所在国:
中国
使用方式:
暂无
Satellite Introduction
千帆星座,也被称为“G60星链”计划,是中国版“星链”的重要组成部分,旨在打造一个由1.4万多颗低轨宽频多媒体卫星构成的庞大星座。千帆星座计划由上海垣信卫星科技有限公司负责实施,于2023年启动建设。该项目是我国第二个低轨卫星大星座,旨在通过构建庞大的卫星网络,为全球用户提供高质量的通信和宽带互联网服务。
2D Orbit Map
3D Orbit Map
Orbit Altitude Analysis Chart
Orbit Inclination Analysis Chart
Orbit Comprehensive Analysis Chart
View Comprehensive Chart